Time,TemperatureF,DewpointF,PressureIn,WindDirection,WindDirectionDegrees,WindSpeedMPH,WindSpeedGustMPH,Humidity,HourlyPrecipIn,Conditions,Clouds,dailyrainin,SoftwareType,DateUTC
2013-01-20 00:10:00,10.5,0.0,29.74,WSW,248,0.0,0.0,62,0.00,,,0.00,WUHU216HW,2013-01-20 06:10:00,
2013-01-20 00:15:00,9.6,-1.1,29.76,West,263,4.2,5.8,61,0.00,,,0.00,WUHU216HW,2013-01-20 06:15:00,
2013-01-20 00:20:00,9.6,-1.1,29.76,WNW,293,2.2,5.8,61,0.00,,,0.00,WUHU216HW,2013-01-20 06:20:00,
2013-01-20 00:25:00,9.3,-1.8,29.76,NW,323,6.5,8.9,60,0.00,,,0.00,WUHU216HW,2013-01-20 06:25:00,
2013-01-20 00:30:00,9.1,-2.0,29.77,SW,225,5.3,8.9,60,0.00,,,0.00,WUHU216HW,2013-01-20 06:30:00,
2013-01-20 00:35:00,9.1,-1.6,29.77,WNW,293,5.1,9.8,61,0.00,,,0.00,WUHU216HW,2013-01-20 06:35:00,
2013-01-20 00:40:00,8.9,-1.8,29.77,West,270,0.0,9.8,61,0.00,,,0.00,WUHU216HW,2013-01-20 06:40:00,
2013-01-20 00:45:00,8.7,-2.0,29.77,WNW,300,8.8,13.1,61,0.00,,,0.00,WUHU216HW,2013-01-20 06:45:00,
2013-01-20 00:50:00,8.6,-2.2,29.78,WNW,293,7.6,14.3,61,0.00,,,0.00,WUHU216HW,2013-01-20 06:50:00,
2013-01-20 00:55:00,8.6,-1.8,29.78,WNW,293,12.7,14.3,62,0.00,,,0.00,WUHU216HW,2013-01-20 06:55:00,
2013-01-20 01:01:00,8.6,-1.5,29.79,SSW,203,4.2,12.7,63,0.00,,,0.00,WUHU216HW,2013-01-20 07:01:00,
2013-01-20 01:06:00,8.4,-1.7,29.79,SW,234,4.1,10.2,63,0.00,,,0.00,WUHU216HW,2013-01-20 07:06:00,
2013-01-20 01:11:00,8.4,-1.7,29.80,WNW,293,5.5,5.5,63,0.00,,,0.00,WUHU216HW,2013-01-20 07:11:00,
2013-01-20 01:16:00,8.4,-1.7,29.80,WNW,284,3.9,8.0,63,0.00,,,0.00,WUHU216HW,2013-01-20 07:16:00,
2013-01-20 01:20:00,8.2,-1.8,29.80,West,277,6.7,9.3,63,0.00,,,0.00,WUHU216HW,2013-01-20 07:20:00,
2013-01-20 01:26:00,7.8,-2.2,29.81,WNW,293,4.9,9.3,63,0.00,,,0.00,WUHU216HW,2013-01-20 07:26:00,
2013-01-20 01:31:00,7.8,-2.2,29.81,WSW,248,3.3,7.3,63,0.00,,,0.00,WUHU216HW,2013-01-20 07:31:00,
2013-01-20 01:36:00,7.7,-2.3,29.82,NNW,338,7.3,7.3,63,0.00,,,0.00,WUHU216HW,2013-01-20 07:36:00,
2013-01-20 01:41:00,7.5,-2.5,29.82,West,270,10.5,10.5,63,0.00,,,0.00,WUHU216HW,2013-01-20 07:41:00,
2013-01-20 01:46:00,7.5,-2.5,29.83,NNW,344,5.7,10.5,63,0.00,,,0.00,WUHU216HW,2013-01-20 07:46:00,
2013-01-20 01:51:00,7.3,-2.7,29.83,SW,225,3.1,8.5,63,0.00,,,0.00,WUHU216HW,2013-01-20 07:51:00,
2013-01-20 01:56:00,7.1,-2.8,29.83,West,270,5.4,6.4,63,0.00,,,0.00,WUHU216HW,2013-01-20 07:56:00,
2013-01-20 02:01:00,7.1,-2.5,29.83,WNW,293,2.9,7.3,64,0.00,,,0.00,WUHU216HW,2013-01-20 08:01:00,
2013-01-20 02:06:00,6.9,-2.7,29.84,WSW,248,2.9,5.5,64,0.00,,,0.00,WUHU216HW,2013-01-20 08:06:00,
2013-01-20 02:11:00,6.9,-2.7,29.83,WSW,248,4.9,5.5,64,0.00,,,0.00,WUHU216HW,2013-01-20 08:11:00,
2013-01-20 02:16:00,6.6,-2.8,29.84,North,0,6.2,6.7,64,0.00,,,0.00,WUHU216HW,2013-01-20 08:16:00,
2013-01-20 02:21:00,6.6,-2.7,29.85,West,272,3.4,6.7,65,0.00,,,0.00,WUHU216HW,2013-01-20 08:21:00,
2013-01-20 02:26:00,6.6,-2.7,29.85,WNW,293,6.9,6.9,65,0.00,,,0.00,WUHU216HW,2013-01-20 08:26:00,
2013-01-20 02:31:00,6.4,-2.9,29.86,West,270,5.1,7.3,65,0.00,,,0.00,WUHU216HW,2013-01-20 08:31:00,
2013-01-20 02:36:00,6.4,-2.9,29.86,WNW,293,5.1,7.3,65,0.00,,,0.00,WUHU216HW,2013-01-20 08:36:00,
2013-01-20 02:41:00,6.4,-2.5,29.87,WNW,293,5.1,6.2,66,0.00,,,0.00,WUHU216HW,2013-01-20 08:41:00,
2013-01-20 02:46:00,6.4,-2.5,29.87,West,270,6.9,6.9,66,0.00,,,0.00,WUHU216HW,2013-01-20 08:46:00,
2013-01-20 02:51:00,6.0,-2.9,29.88,West,263,1.8,6.9,66,0.00,,,0.00,WUHU216HW,2013-01-20 08:51:00,
2013-01-20 02:56:00,6.0,-2.9,29.88,WNW,293,4.0,8.2,66,0.00,,,0.00,WUHU216HW,2013-01-20 08:56:00,
2013-01-20 03:01:00,6.0,-2.9,29.88,SW,225,3.3,8.2,66,0.00,,,0.00,WUHU216HW,2013-01-20 09:01:00,
2013-01-20 03:06:00,6.0,-2.9,29.88,WSW,248,0.0,3.8,66,0.00,,,0.00,WUHU216HW,2013-01-20 09:06:00,
2013-01-20 03:12:00,5.9,-3.1,29.88,WNW,294,3.1,3.5,66,0.00,,,0.00,WUHU216HW,2013-01-20 09:12:00,
2013-01-20 03:17:00,5.9,-2.8,29.88,West,270,1.3,9.1,67,0.00,,,0.00,WUHU216HW,2013-01-20 09:17:00,
2013-01-20 03:22:00,5.7,-2.9,29.88,West,275,4.5,9.1,67,0.00,,,0.00,WUHU216HW,2013-01-20 09:22:00,
2013-01-20 03:27:00,5.7,-2.9,29.89,SW,225,6.9,9.6,67,0.00,,,0.00,WUHU216HW,2013-01-20 09:27:00,
2013-01-20 03:32:00,5.5,-2.9,29.89,West,270,3.0,9.6,67,0.00,,,0.00,WUHU216HW,2013-01-20 09:32:00,
2013-01-20 03:37:00,5.5,-3.1,29.89,WSW,248,0.0,5.1,67,0.00,,,0.00,WUHU216HW,2013-01-20 09:37:00,
2013-01-20 03:42:00,5.3,-3.3,29.89,NW,315,4.6,5.1,67,0.00,,,0.00,WUHU216HW,2013-01-20 09:42:00,
2013-01-20 03:47:00,5.1,-3.5,29.90,SW,225,3.8,5.5,67,0.00,,,0.00,WUHU216HW,2013-01-20 09:47:00,
2013-01-20 03:52:00,5.1,-3.2,29.90,West,270,1.1,5.5,68,0.00,,,0.00,WUHU216HW,2013-01-20 09:52:00,
2013-01-20 03:57:00,5.1,-3.2,29.90,WNW,293,0.0,4.4,68,0.00,,,0.00,WUHU216HW,2013-01-20 09:57:00,
2013-01-20 04:02:00,5.0,-3.3,29.90,West,270,0.0,3.5,68,0.00,,,0.00,WUHU216HW,2013-01-20 10:02:00,
2013-01-20 04:07:00,4.8,-3.5,29.90,WNW,293,0.0,3.5,68,0.00,,,0.00,WUHU216HW,2013-01-20 10:07:00,
2013-01-20 04:12:00,4.8,-3.5,29.91,WSW,248,0.0,5.3,68,0.00,,,0.00,WUHU216HW,2013-01-20 10:12:00,
2013-01-20 04:17:00,4.8,-3.5,29.91,WSW,240,2.5,5.3,68,0.00,,,0.00,WUHU216HW,2013-01-20 10:17:00,
2013-01-20 04:22:00,4.8,-3.2,29.91,WNW,293,4.2,8.0,69,0.00,,,0.00,WUHU216HW,2013-01-20 10:22:00,
2013-01-20 04:27:00,4.8,-3.2,29.92,WNW,293,0.0,8.0,69,0.00,,,0.00,WUHU216HW,2013-01-20 10:27:00,
2013-01-20 04:32:00,4.8,-3.2,29.93,WNW,293,2.2,6.9,69,0.00,,,0.00,WUHU216HW,2013-01-20 10:32:00,
2013-01-20 04:37:00,4.6,-3.2,29.93,WSW,248,4.2,5.3,69,0.00,,,0.00,WUHU216HW,2013-01-20 10:37:00,
2013-01-20 04:42:00,4.6,-3.7,29.93,West,270,4.0,4.2,68,0.00,,,0.00,WUHU216HW,2013-01-20 10:42:00,
2013-01-20 04:47:00,4.6,-3.7,29.93,WNW,293,4.2,5.3,68,0.00,,,0.00,WUHU216HW,2013-01-20 10:47:00,
2013-01-20 04:52:00,4.6,-3.3,29.93,WSW,246,3.3,5.8,69,0.00,,,0.00,WUHU216HW,2013-01-20 10:52:00,
2013-01-20 04:57:00,4.4,-3.5,29.93,WNW,293,3.5,5.8,69,0.00,,,0.00,WUHU216HW,2013-01-20 10:57:00,
2013-01-20 05:02:00,4.6,-3.3,29.94,NW,315,5.1,7.6,69,0.00,,,0.00,WUHU216HW,2013-01-20 11:02:00,
2013-01-20 05:07:00,4.4,-3.5,29.94,WNW,293,4.2,7.6,69,0.00,,,0.00,WUHU216HW,2013-01-20 11:07:00,
2013-01-20 05:12:00,4.2,-3.7,29.94,WNW,293,3.3,4.4,69,0.00,,,0.00,WUHU216HW,2013-01-20 11:12:00,
2013-01-20 05:17:00,4.2,-3.7,29.94,WSW,248,5.3,8.0,69,0.00,,,0.00,WUHU216HW,2013-01-20 11:17:00,
2013-01-20 05:22:00,4.2,-3.7,29.95,WNW,293,0.0,8.0,69,0.00,,,0.00,WUHU216HW,2013-01-20 11:22:00,
2013-01-20 05:27:00,4.2,-3.7,29.95,WNW,293,0.0,9.3,69,0.00,,,0.00,WUHU216HW,2013-01-20 11:27:00,
2013-01-20 05:32:00,4.1,-3.8,29.95,SW,225,4.6,9.3,69,0.00,,,0.00,WUHU216HW,2013-01-20 11:32:00,
2013-01-20 05:38:00,3.9,-4.0,29.96,West,270,0.0,6.9,69,0.00,,,0.00,WUHU216HW,2013-01-20 11:38:00,
2013-01-20 05:43:00,3.9,-4.0,29.96,West,270,6.0,6.0,69,0.00,,,0.00,WUHU216HW,2013-01-20 11:43:00,
2013-01-20 05:48:00,3.9,-4.0,29.96,NW,315,3.5,6.0,69,0.00,,,0.00,WUHU216HW,2013-01-20 11:48:00,
2013-01-20 05:53:00,3.9,-4.0,29.97,WNW,293,0.0,4.6,69,0.00,,,0.00,WUHU216HW,2013-01-20 11:53:00,
2013-01-20 05:58:00,3.9,-4.0,29.98,West,270,0.0,3.1,69,0.00,,,0.00,WUHU216HW,2013-01-20 11:58:00,
2013-01-20 06:03:00,3.9,-4.0,29.98,WSW,240,4.9,5.3,69,0.00,,,0.00,WUHU216HW,2013-01-20 12:03:00,
2013-01-20 06:08:00,3.9,-4.0,29.98,WNW,293,2.9,5.3,69,0.00,,,0.00,WUHU216HW,2013-01-20 12:08:00,
2013-01-20 06:13:00,3.7,-4.1,29.99,WSW,248,0.0,3.8,69,0.00,,,0.00,WUHU216HW,2013-01-20 12:13:00,
2013-01-20 06:18:00,3.7,-3.8,29.99,NW,315,0.0,3.8,70,0.00,,,0.00,WUHU216HW,2013-01-20 12:18:00,
2013-01-20 06:23:00,3.7,-3.8,29.99,West,270,0.0,3.5,70,0.00,,,0.00,WUHU216HW,2013-01-20 12:23:00,
2013-01-20 06:28:00,3.5,-3.8,29.99,West,270,0.0,2.4,70,0.00,,,0.00,WUHU216HW,2013-01-20 12:28:00,
2013-01-20 06:33:00,3.5,-4.0,29.99,West,275,2.8,4.4,70,0.00,,,0.00,WUHU216HW,2013-01-20 12:33:00,
2013-01-20 06:38:00,3.3,-4.1,29.99,WSW,248,3.1,4.4,70,0.00,,,0.00,WUHU216HW,2013-01-20 12:38:00,
2013-01-20 06:43:00,3.3,-4.1,29.99,WSW,248,0.0,3.1,70,0.00,,,0.00,WUHU216HW,2013-01-20 12:43:00,
2013-01-20 06:49:00,3.3,-4.1,29.99,NW,315,2.2,3.3,70,0.00,,,0.00,WUHU216HW,2013-01-20 12:49:00,
2013-01-20 06:54:00,3.3,-4.1,29.99,SW,225,1.7,3.3,70,0.00,,,0.00,WUHU216HW,2013-01-20 12:54:00,
2013-01-20 06:59:00,3.3,-4.1,29.99,WNW,293,0.0,1.7,70,0.00,,,0.00,WUHU216HW,2013-01-20 12:59:00,
2013-01-20 07:04:00,3.3,-4.1,29.99,West,270,0.0,4.0,70,0.00,,,0.00,WUHU216HW,2013-01-20 13:04:00,
2013-01-20 07:09:00,3.0,-4.5,30.00,WNW,293,3.1,4.0,70,0.00,,,0.00,WUHU216HW,2013-01-20 13:09:00,
2013-01-20 07:14:00,3.0,-4.5,29.99,WSW,248,0.0,3.1,70,0.00,,,0.00,WUHU216HW,2013-01-20 13:14:00,
2013-01-20 07:19:00,3.0,-4.2,29.99,NW,315,10.2,10.2,71,0.00,,,0.00,WUHU216HW,2013-01-20 13:19:00,
2013-01-20 07:24:00,3.0,-4.2,30.01,WSW,248,0.2,10.2,71,0.00,,,0.00,WUHU216HW,2013-01-20 13:24:00,
2013-01-20 07:29:00,3.0,-4.2,30.01,West,270,0.0,4.4,71,0.00,,,0.00,WUHU216HW,2013-01-20 13:29:00,
2013-01-20 07:34:00,3.0,-4.2,30.02,WSW,252,4.3,5.1,71,0.00,,,0.00,WUHU216HW,2013-01-20 13:34:00,
2013-01-20 07:39:00,3.3,-4.1,30.01,NW,315,4.9,5.1,70,0.00,,,0.00,WUHU216HW,2013-01-20 13:39:00,
2013-01-20 07:44:00,3.3,-4.1,30.02,NNW,338,7.3,7.3,70,0.00,,,0.00,WUHU216HW,2013-01-20 13:44:00,
2013-01-20 07:49:00,3.5,-4.0,30.02,West,270,2.6,7.3,70,0.00,,,0.00,WUHU216HW,2013-01-20 13:49:00,
2013-01-20 07:54:00,3.9,-3.7,30.03,NW,315,2.9,5.5,70,0.00,,,0.00,WUHU216HW,2013-01-20 13:54:00,
2013-01-20 07:59:00,3.9,-3.7,30.03,WNW,293,0.0,5.5,70,0.00,,,0.00,WUHU216HW,2013-01-20 13:59:00,
2013-01-20 08:04:00,4.1,-3.5,30.03,West,270,0.0,5.8,70,0.00,,,0.00,WUHU216HW,2013-01-20 14:04:00,
2013-01-20 08:09:00,4.4,-3.2,30.02,West,270,4.0,6.4,70,0.00,,,0.00,WUHU216HW,2013-01-20 14:09:00,
2013-01-20 08:14:00,4.6,-3.3,30.03,WNW,293,3.5,6.4,69,0.00,,,0.00,WUHU216HW,2013-01-20 14:14:00,
2013-01-20 08:19:00,4.6,-3.3,30.03,West,270,2.6,7.6,69,0.00,,,0.00,WUHU216HW,2013-01-20 14:19:00,
2013-01-20 08:25:00,4.6,-3.3,30.03,NW,315,0.0,7.6,69,0.00,,,0.00,WUHU216HW,2013-01-20 14:25:00,
2013-01-20 08:30:00,4.6,-3.3,30.03,West,270,0.2,4.4,69,0.00,,,0.00,WUHU216HW,2013-01-20 14:30:00,
2013-01-20 08:35:00,4.6,-3.7,30.04,WSW,248,0.0,4.4,68,0.00,,,0.00,WUHU216HW,2013-01-20 14:35:00,
2013-01-20 08:40:00,4.6,-3.7,30.04,West,270,0.0,3.8,68,0.00,,,0.00,WUHU216HW,2013-01-20 14:40:00,
2013-01-20 08:45:00,4.6,-3.7,30.05,WSW,248,3.1,10.7,68,0.00,,,0.00,WUHU216HW,2013-01-20 14:45:00,
2013-01-20 08:50:00,4.6,-3.7,30.05,WSW,248,0.0,10.7,68,0.00,,,0.00,WUHU216HW,2013-01-20 14:50:00,
2013-01-20 08:55:00,4.8,-3.2,30.05,West,270,0.0,7.3,69,0.00,,,0.00,WUHU216HW,2013-01-20 14:55:00,
2013-01-20 09:00:00,4.8,-3.2,30.05,SW,235,4.6,7.3,69,0.00,,,0.00,WUHU216HW,2013-01-20 15:00:00,
2013-01-20 09:05:00,5.0,-3.0,30.05,WSW,248,3.1,5.1,69,0.00,,,0.00,WUHU216HW,2013-01-20 15:05:00,
2013-01-20 09:10:00,5.1,-2.8,30.05,West,270,5.1,5.1,69,0.00,,,0.00,WUHU216HW,2013-01-20 15:10:00,
2013-01-20 09:15:00,5.5,-2.5,30.05,WSW,248,4.2,5.1,69,0.00,,,0.00,WUHU216HW,2013-01-20 15:15:00,
2013-01-20 09:20:00,6.0,-2.1,30.05,WSW,248,6.7,6.7,69,0.00,,,0.00,WUHU216HW,2013-01-20 15:20:00,
2013-01-20 09:25:00,6.4,-1.7,30.05,WNW,293,0.0,6.7,68,0.00,,,0.00,WUHU216HW,2013-01-20 15:25:00,
2013-01-20 09:30:00,6.6,-2.0,30.05,WNW,293,4.2,5.8,67,0.00,,,0.00,WUHU216HW,2013-01-20 15:30:00,
2013-01-20 09:35:00,6.6,-2.0,30.05,SW,225,0.0,4.2,67,0.00,,,0.00,WUHU216HW,2013-01-20 15:35:00,
2013-01-20 09:40:00,6.9,-1.7,30.05,WSW,248,0.0,1.5,67,0.00,,,0.00,WUHU216HW,2013-01-20 15:40:00,
2013-01-20 09:46:00,7.3,-1.3,30.05,SW,225,0.0,0.6,67,0.00,,,0.00,WUHU216HW,2013-01-20 15:46:00,
2013-01-20 09:51:00,7.5,-1.5,30.05,West,270,5.1,5.1,66,0.00,,,0.00,WUHU216HW,2013-01-20 15:51:00,
2013-01-20 09:56:00,7.5,-1.5,30.05,West,270,0.0,5.1,66,0.00,,,0.00,WUHU216HW,2013-01-20 15:56:00,
2013-01-20 10:01:00,7.3,-2.0,30.06,WNW,293,0.0,4.6,65,0.00,,,0.00,WUHU216HW,2013-01-20 16:01:00,
2013-01-20 10:06:00,7.3,-2.0,30.06,WSW,248,2.2,5.5,65,0.00,,,0.00,WUHU216HW,2013-01-20 16:06:00,
2013-01-20 10:11:00,7.5,-1.8,30.06,West,270,0.0,5.5,65,0.00,,,0.00,WUHU216HW,2013-01-20 16:11:00,
2013-01-20 10:16:00,7.8,-1.5,30.06,NNE,23,0.0,2.2,65,0.00,,,0.00,WUHU216HW,2013-01-20 16:16:00,
2013-01-20 10:21:00,8.0,-1.3,30.06,WSW,248,0.0,4.2,65,0.00,,,0.00,WUHU216HW,2013-01-20 16:21:00,
2013-01-20 10:26:00,8.7,-0.6,30.06,SSW,203,1.1,4.2,65,0.00,,,0.00,WUHU216HW,2013-01-20 16:26:00,
2013-01-20 10:31:00,9.5,-0.3,30.07,WNW,293,1.7,4.4,64,0.00,,,0.00,WUHU216HW,2013-01-20 16:31:00,
2013-01-20 10:36:00,9.6,0.0,30.06,WSW,248,0.0,4.4,64,0.00,,,0.00,WUHU216HW,2013-01-20 16:36:00,
2013-01-20 10:41:00,10.2,0.0,30.06,WNW,293,1.7,4.4,63,0.00,,,0.00,WUHU216HW,2013-01-20 16:41:00,
2013-01-20 10:46:00,10.5,0.0,30.06,NW,315,3.8,4.4,62,0.00,,,0.00,WUHU216HW,2013-01-20 16:46:00,
2013-01-20 10:51:00,11.1,0.5,30.06,WSW,248,3.1,4.2,62,0.00,,,0.00,WUHU216HW,2013-01-20 16:51:00,
2013-01-20 10:56:00,11.3,0.7,30.06,WNW,293,0.0,3.1,62,0.00,,,0.00,WUHU216HW,2013-01-20 16:56:00,
2013-01-20 11:01:00,11.4,0.5,30.06,WNW,293,0.8,3.1,61,0.00,,,0.00,WUHU216HW,2013-01-20 17:01:00,
2013-01-20 11:06:00,11.6,0.8,30.06,SW,225,2.2,3.8,61,0.00,,,0.00,WUHU216HW,2013-01-20 17:06:00,
2013-01-20 11:11:00,11.4,0.2,30.07,WNW,293,3.3,3.8,60,0.00,,,0.00,WUHU216HW,2013-01-20 17:11:00,
2013-01-20 11:16:00,10.9,-0.2,30.06,WSW,248,0.0,3.8,60,0.00,,,0.00,WUHU216HW,2013-01-20 17:16:00,
2013-01-20 11:21:00,11.3,0.0,30.06,WNW,293,3.3,3.3,60,0.00,,,0.00,WUHU216HW,2013-01-20 17:21:00,
2013-01-20 11:26:00,11.1,-0.1,30.06,WNW,293,0.0,5.1,60,0.00,,,0.00,WUHU216HW,2013-01-20 17:26:00,
2013-01-20 11:31:00,10.9,-0.8,30.06,WSW,248,2.9,5.1,59,0.00,,,0.00,WUHU216HW,2013-01-20 17:31:00,
2013-01-20 11:36:00,10.2,-1.3,30.06,West,270,0.2,3.3,59,0.00,,,0.00,WUHU216HW,2013-01-20 17:36:00,
2013-01-20 11:41:00,10.0,-1.4,30.06,NNW,338,0.0,3.3,59,0.00,,,0.00,WUHU216HW,2013-01-20 17:41:00,
2013-01-20 11:46:00,10.2,-0.9,30.05,WSW,248,6.4,6.4,60,0.00,,,0.00,WUHU216HW,2013-01-20 17:46:00,
2013-01-20 11:51:00,10.7,-0.4,30.05,WNW,293,7.3,7.3,60,0.00,,,0.00,WUHU216HW,2013-01-20 17:51:00,
2013-01-20 11:56:00,11.1,-0.4,30.05,West,272,5.6,7.3,59,0.00,,,0.00,WUHU216HW,2013-01-20 17:56:00,
2013-01-20 12:01:00,11.4,-0.5,30.05,WNW,293,7.6,7.6,58,0.00,,,0.00,WUHU216HW,2013-01-20 18:01:00,
2013-01-20 12:06:00,11.6,-0.5,30.05,NW,315,3.8,7.6,58,0.00,,,0.00,WUHU216HW,2013-01-20 18:06:00,
2013-01-20 12:11:00,12.0,0.0,30.04,WNW,293,4.4,7.6,58,0.00,,,0.00,WUHU216HW,2013-01-20 18:11:00,
2013-01-20 12:16:00,12.7,0.6,30.05,WSW,248,6.0,6.0,58,0.00,,,0.00,WUHU216HW,2013-01-20 18:16:00,
2013-01-20 12:21:00,13.2,1.1,30.04,West,270,0.0,6.0,58,0.00,,,0.00,WUHU216HW,2013-01-20 18:21:00,
2013-01-20 12:26:00,13.1,0.9,30.04,SW,225,3.3,9.1,58,0.00,,,0.00,WUHU216HW,2013-01-20 18:26:00,
2013-01-20 12:31:00,12.9,0.4,30.04,WNW,293,1.1,10.5,57,0.00,,,0.00,WUHU216HW,2013-01-20 18:31:00,
2013-01-20 12:36:00,12.7,0.2,30.03,SW,225,3.5,10.5,57,0.00,,,0.00,WUHU216HW,2013-01-20 18:36:00,
2013-01-20 12:41:00,12.5,0.0,30.03,WSW,248,2.2,3.5,57,0.00,,,0.00,WUHU216HW,2013-01-20 18:41:00,
2013-01-20 12:46:00,12.2,-0.2,30.03,West,270,0.0,2.9,57,0.00,,,0.00,WUHU216HW,2013-01-20 18:46:00,
2013-01-20 12:51:00,12.2,-0.2,30.03,West,270,0.0,5.3,57,0.00,,,0.00,WUHU216HW,2013-01-20 18:51:00,
2013-01-20 12:56:00,12.3,-0.1,30.03,WSW,248,2.0,5.3,57,0.00,,,0.00,WUHU216HW,2013-01-20 18:56:00,
2013-01-20 13:01:00,12.5,-0.1,30.03,West,270,4.4,4.4,57,0.00,,,0.00,WUHU216HW,2013-01-20 19:01:00,
2013-01-20 13:06:00,12.7,-0.1,30.02,NW,306,5.1,7.3,56,0.00,,,0.00,WUHU216HW,2013-01-20 19:06:00,
2013-01-20 13:11:00,12.7,-0.1,30.02,West,270,0.8,7.3,56,0.00,,,0.00,WUHU216HW,2013-01-20 19:11:00,
2013-01-20 13:16:00,12.7,-0.1,30.02,WSW,248,2.4,3.3,56,0.00,,,0.00,WUHU216HW,2013-01-20 19:16:00,
2013-01-20 13:21:00,13.1,0.2,30.02,WNW,293,0.0,8.9,56,0.00,,,0.00,WUHU216HW,2013-01-20 19:21:00,
2013-01-20 13:26:00,13.1,-0.1,30.01,SSW,203,0.0,8.9,55,0.00,,,0.00,WUHU216HW,2013-01-20 19:26:00,
2013-01-20 13:31:00,13.2,0.0,30.01,WSW,248,0.4,3.8,55,0.00,,,0.00,WUHU216HW,2013-01-20 19:31:00,
2013-01-20 13:36:00,13.2,0.0,30.01,West,274,6.3,7.3,55,0.00,,,0.00,WUHU216HW,2013-01-20 19:36:00,
2013-01-20 13:41:00,13.2,0.0,30.02,West,270,0.0,7.3,55,0.00,,,0.00,WUHU216HW,2013-01-20 19:41:00,
2013-01-20 13:46:00,13.1,-0.5,30.02,WSW,238,4.2,5.3,54,0.00,,,0.00,WUHU216HW,2013-01-20 19:46:00,
2013-01-20 13:51:00,13.2,0.0,30.02,WNW,293,0.0,5.3,55,0.00,,,0.00,WUHU216HW,2013-01-20 19:51:00,
2013-01-20 13:56:00,13.2,-0.4,30.02,WSW,248,0.0,1.1,54,0.00,,,0.00,WUHU216HW,2013-01-20 19:56:00,
2013-01-20 14:01:00,13.6,0.0,30.01,West,270,1.8,3.3,54,0.00,,,0.00,WUHU216HW,2013-01-20 20:01:00,
2013-01-20 14:06:00,13.6,-0.4,30.02,WNW,293,3.3,8.9,53,0.00,,,0.00,WUHU216HW,2013-01-20 20:06:00,
2013-01-20 14:11:00,13.6,-0.4,30.02,North,0,3.3,9.8,53,0.00,,,0.00,WUHU216HW,2013-01-20 20:11:00,
2013-01-20 14:16:00,13.4,-0.4,30.01,NW,315,0.0,9.8,53,0.00,,,0.00,WUHU216HW,2013-01-20 20:16:00,
2013-01-20 14:21:00,13.6,-0.4,30.01,WNW,293,2.9,5.1,53,0.00,,,0.00,WUHU216HW,2013-01-20 20:21:00,
2013-01-20 14:26:00,13.6,-0.4,30.01,West,270,0.0,5.1,53,0.00,,,0.00,WUHU216HW,2013-01-20 20:26:00,
2013-01-20 14:31:00,13.6,-0.8,30.01,WSW,248,0.0,3.3,52,0.00,,,0.00,WUHU216HW,2013-01-20 20:31:00,
2013-01-20 14:36:00,13.8,-0.2,30.01,WSW,248,0.0,7.1,53,0.00,,,0.00,WUHU216HW,2013-01-20 20:36:00,
2013-01-20 14:41:00,14.1,0.0,30.01,NW,315,0.0,7.1,53,0.00,,,0.00,WUHU216HW,2013-01-20 20:41:00,
2013-01-20 14:46:00,14.1,-0.3,30.01,WNW,293,6.2,6.2,52,0.00,,,0.00,WUHU216HW,2013-01-20 20:46:00,
2013-01-20 14:51:00,14.1,-0.3,30.01,North,0,0.0,6.2,52,0.00,,,0.00,WUHU216HW,2013-01-20 20:51:00,
2013-01-20 14:57:00,14.1,-0.1,30.01,WNW,293,5.3,5.3,52,0.00,,,0.00,WUHU216HW,2013-01-20 20:57:00,
2013-01-20 15:02:00,14.1,-0.3,30.01,WSW,248,6.2,6.2,52,0.00,,,0.00,WUHU216HW,2013-01-20 21:02:00,
2013-01-20 15:07:00,14.1,-0.3,30.01,WNW,293,0.0,6.2,52,0.00,,,0.00,WUHU216HW,2013-01-20 21:07:00,
2013-01-20 15:12:00,13.8,-1.0,30.01,SW,225,0.0,5.1,51,0.00,,,0.00,WUHU216HW,2013-01-20 21:12:00,
2013-01-20 15:17:00,13.8,-1.0,30.01,NW,315,0.0,4.6,51,0.00,,,0.00,WUHU216HW,2013-01-20 21:17:00,
2013-01-20 15:22:00,13.8,-1.0,30.01,WSW,248,1.5,4.6,51,0.00,,,0.00,WUHU216HW,2013-01-20 21:22:00,
2013-01-20 15:27:00,13.2,-1.5,30.01,WSW,248,1.3,2.2,51,0.00,,,0.00,WUHU216HW,2013-01-20 21:27:00,
2013-01-20 15:33:00,13.1,-1.7,30.01,West,270,5.5,5.5,51,0.00,,,0.00,WUHU216HW,2013-01-20 21:33:00,
2013-01-20 15:38:00,12.9,-1.8,30.01,WSW,248,0.0,5.5,51,0.00,,,0.00,WUHU216HW,2013-01-20 21:38:00,
2013-01-20 15:43:00,12.7,-2.0,30.01,WNW,293,2.6,3.5,51,0.00,,,0.00,WUHU216HW,2013-01-20 21:43:00,
2013-01-20 15:48:00,12.5,-2.2,30.01,WSW,248,0.0,4.0,51,0.00,,,0.00,WUHU216HW,2013-01-20 21:48:00,
2013-01-20 15:53:00,12.3,-2.3,30.01,West,270,2.4,5.8,51,0.00,,,0.00,WUHU216HW,2013-01-20 21:53:00,
2013-01-20 15:58:00,12.0,-2.7,30.01,WNW,293,5.1,6.9,51,0.00,,,0.00,WUHU216HW,2013-01-20 21:58:00,
2013-01-20 16:03:00,11.6,-3.0,30.01,WNW,293,1.7,6.9,51,0.00,,,0.00,WUHU216HW,2013-01-20 22:03:00,
2013-01-20 16:08:00,11.4,-2.8,30.00,WNW,293,6.4,6.4,52,0.00,,,0.00,WUHU216HW,2013-01-20 22:08:00,
2013-01-20 16:13:00,11.3,-2.9,30.00,WNW,293,0.0,6.4,52,0.00,,,0.00,WUHU216HW,2013-01-20 22:13:00,
2013-01-20 16:18:00,11.1,-3.1,30.00,WNW,293,0.0,3.8,52,0.00,,,0.00,WUHU216HW,2013-01-20 22:18:00,
2013-01-20 16:23:00,10.9,-3.2,30.00,WNW,293,2.4,5.3,52,0.00,,,0.00,WUHU216HW,2013-01-20 22:23:00,
2013-01-20 16:28:00,10.5,-3.2,30.00,WNW,293,0.0,5.3,53,0.00,,,0.00,WUHU216HW,2013-01-20 22:28:00,
2013-01-20 16:33:00,10.2,-3.5,30.00,NW,315,0.0,0.0,53,0.00,,,0.00,WUHU216HW,2013-01-20 22:33:00,
2013-01-20 16:38:00,10.0,-3.7,30.00,WNW,293,0.0,1.5,53,0.00,,,0.00,WUHU216HW,2013-01-20 22:38:00,
2013-01-20 16:43:00,9.6,-4.1,30.00,WNW,293,0.0,1.5,53,0.00,,,0.00,WUHU216HW,2013-01-20 22:43:00,
2013-01-20 16:48:00,9.5,-4.3,30.00,WNW,293,1.1,1.1,53,0.00,,,0.00,WUHU216HW,2013-01-20 22:48:00,
2013-01-20 16:54:00,9.1,-4.2,30.00,WSW,248,0.0,1.1,54,0.00,,,0.00,WUHU216HW,2013-01-20 22:54:00,
2013-01-20 16:59:00,8.9,-4.4,30.00,West,270,0.0,0.0,54,0.00,,,0.00,WUHU216HW,2013-01-20 22:59:00,
2013-01-20 17:04:00,8.6,-4.4,30.00,WNW,293,0.0,0.0,55,0.00,,,0.00,WUHU216HW,2013-01-20 23:04:00,
2013-01-20 17:09:00,8.2,-4.7,30.00,West,270,0.0,0.0,55,0.00,,,0.00,WUHU216HW,2013-01-20 23:09:00,
2013-01-20 17:14:00,8.0,-4.9,30.00,WNW,293,0.0,0.0,55,0.00,,,0.00,WUHU216HW,2013-01-20 23:14:00,
2013-01-20 17:19:00,7.7,-4.8,30.00,WNW,293,0.0,0.0,56,0.00,,,0.00,WUHU216HW,2013-01-20 23:19:00,
2013-01-20 17:24:00,7.5,-5.0,30.00,NW,315,0.0,1.5,56,0.00,,,0.00,WUHU216HW,2013-01-20 23:24:00,
2013-01-20 17:29:00,7.5,-4.6,30.00,West,270,0.0,1.5,57,0.00,,,0.00,WUHU216HW,2013-01-20 23:29:00,
2013-01-20 17:34:00,7.3,-4.8,30.00,West,270,0.0,0.0,57,0.00,,,0.00,WUHU216HW,2013-01-20 23:34:00,
2013-01-20 17:39:00,7.1,-4.9,30.00,WSW,248,0.0,0.0,57,0.00,,,0.00,WUHU216HW,2013-01-20 23:39:00,
2013-01-20 17:44:00,7.1,-4.9,30.00,WSW,248,0.0,0.0,57,0.00,,,0.00,WUHU216HW,2013-01-20 23:44:00,
2013-01-20 17:49:00,6.9,-5.1,30.00,West,270,0.0,3.1,57,0.00,,,0.00,WUHU216HW,2013-01-20 23:49:00,
2013-01-20 17:54:00,6.9,-5.1,30.00,WNW,293,0.0,3.1,57,0.00,,,0.00,WUHU216HW,2013-01-20 23:54:00,
2013-01-20 18:00:00,6.9,-5.1,30.00,NW,315,0.0,0.0,57,0.00,,,0.00,WUHU216HW,2013-01-21 00:00:00,
2013-01-20 18:05:00,6.6,-5.1,30.00,WNW,293,0.0,0.0,58,0.00,,,0.00,WUHU216HW,2013-01-21 00:05:00,
2013-01-20 18:10:00,6.6,-5.1,30.00,West,270,0.0,3.5,58,0.00,,,0.00,WUHU216HW,2013-01-21 00:10:00,
2013-01-20 18:15:00,6.6,-5.1,30.00,West,270,0.0,3.5,58,0.00,,,0.00,WUHU216HW,2013-01-21 00:15:00,
2013-01-20 18:20:00,6.4,-5.2,30.00,West,270,0.0,0.0,58,0.00,,,0.00,WUHU216HW,2013-01-21 00:20:00,
2013-01-20 18:25:00,6.4,-5.2,30.00,WSW,248,0.0,0.0,58,0.00,,,0.00,WUHU216HW,2013-01-21 00:25:00,
2013-01-20 18:30:00,6.0,-5.2,30.00,WSW,248,0.0,0.0,59,0.00,,,0.00,WUHU216HW,2013-01-21 00:30:00,
2013-01-20 18:35:00,6.0,-5.2,30.00,WNW,293,0.0,0.0,59,0.00,,,0.00,WUHU216HW,2013-01-21 00:35:00,
2013-01-20 18:40:00,5.9,-5.4,29.99,West,270,0.0,0.0,59,0.00,,,0.00,WUHU216HW,2013-01-21 00:40:00,
2013-01-20 18:45:00,6.0,-5.2,30.00,WSW,248,0.0,0.0,59,0.00,,,0.00,WUHU216HW,2013-01-21 00:45:00,
2013-01-20 18:50:00,5.9,-5.0,29.99,SW,225,0.0,0.0,60,0.00,,,0.00,WUHU216HW,2013-01-21 00:50:00,
2013-01-20 18:55:00,5.9,-5.0,29.99,West,270,0.0,0.0,60,0.00,,,0.00,WUHU216HW,2013-01-21 00:55:00,
2013-01-20 19:00:00,5.9,-5.0,30.00,WNW,293,0.0,0.0,60,0.00,,,0.00,WUHU216HW,2013-01-21 01:00:00,
2013-01-20 19:05:00,5.9,-5.0,30.00,WSW,248,2.6,2.6,60,0.00,,,0.00,WUHU216HW,2013-01-21 01:05:00,
2013-01-20 19:10:00,6.0,-4.5,30.00,SW,225,0.0,2.6,61,0.00,,,0.00,WUHU216HW,2013-01-21 01:10:00,
2013-01-20 19:16:00,6.0,-4.5,30.00,WSW,248,0.0,0.0,61,0.00,,,0.00,WUHU216HW,2013-01-21 01:16:00,
2013-01-20 19:21:00,5.9,-4.7,30.00,WSW,248,0.0,0.0,61,0.00,,,0.00,WUHU216HW,2013-01-21 01:21:00,
2013-01-20 19:26:00,5.7,-4.9,29.99,WSW,248,0.0,0.0,61,0.00,,,0.00,WUHU216HW,2013-01-21 01:26:00,
2013-01-20 19:31:00,5.7,-4.9,29.99,WNW,293,0.0,0.0,61,0.00,,,0.00,WUHU216HW,2013-01-21 01:31:00,
2013-01-20 19:36:00,5.5,-5.1,29.99,WSW,248,0.0,0.0,61,0.00,,,0.00,WUHU216HW,2013-01-21 01:36:00,
2013-01-20 19:41:00,5.7,-4.6,29.99,WSW,248,0.0,0.0,62,0.00,,,0.00,WUHU216HW,2013-01-21 01:41:00,
2013-01-20 19:46:00,6.0,-4.2,29.99,West,270,0.0,0.0,62,0.00,,,0.00,WUHU216HW,2013-01-21 01:46:00,
2013-01-20 19:51:00,6.4,-3.8,29.99,WNW,293,0.0,0.0,62,0.00,,,0.00,WUHU216HW,2013-01-21 01:51:00,
2013-01-20 19:56:00,6.4,-3.8,29.99,WSW,248,0.0,0.0,62,0.00,,,0.00,WUHU216HW,2013-01-21 01:56:00,
2013-01-20 20:01:00,6.4,-3.8,29.99,SW,225,0.0,0.0,62,0.00,,,0.00,WUHU216HW,2013-01-21 02:01:00,
2013-01-20 20:06:00,6.4,-3.8,29.98,West,270,0.0,0.0,62,0.00,,,0.00,WUHU216HW,2013-01-21 02:06:00,
2013-01-20 20:12:00,6.4,-3.8,29.99,WNW,293,0.0,0.0,62,0.00,,,0.00,WUHU216HW,2013-01-21 02:12:00,
2013-01-20 20:17:00,6.4,-3.8,29.98,SW,225,3.3,3.3,62,0.00,,,0.00,WUHU216HW,2013-01-21 02:17:00,
2013-01-20 20:22:00,6.4,-3.8,29.99,WSW,248,0.0,3.3,62,0.00,,,0.00,WUHU216HW,2013-01-21 02:22:00,
2013-01-20 20:27:00,6.4,-3.8,29.99,SW,225,0.0,0.0,62,0.00,,,0.00,WUHU216HW,2013-01-21 02:27:00,
2013-01-20 20:32:00,6.4,-3.8,29.99,WNW,293,0.0,2.0,62,0.00,,,0.00,WUHU216HW,2013-01-21 02:32:00,
2013-01-20 20:37:00,6.4,-3.8,29.98,WNW,293,0.0,2.0,62,0.00,,,0.00,WUHU216HW,2013-01-21 02:37:00,
2013-01-20 20:42:00,6.4,-3.8,29.98,WNW,293,0.0,0.0,62,0.00,,,0.00,WUHU216HW,2013-01-21 02:42:00,
2013-01-20 20:47:00,6.4,-3.8,29.98,West,270,0.0,0.0,62,0.00,,,0.00,WUHU216HW,2013-01-21 02:47:00,
2013-01-20 20:52:00,6.4,-3.8,29.98,WSW,248,0.0,0.0,62,0.00,,,0.00,WUHU216HW,2013-01-21 02:52:00,
2013-01-20 20:57:00,6.4,-3.8,29.98,WNW,293,0.0,0.0,62,0.00,,,0.00,WUHU216HW,2013-01-21 02:57:00,
2013-01-20 21:02:00,6.0,-4.2,29.98,WSW,248,0.0,0.0,62,0.00,,,0.00,WUHU216HW,2013-01-21 03:02:00,
2013-01-20 21:07:00,6.0,-4.2,29.98,WNW,293,0.0,0.0,62,0.00,,,0.00,WUHU216HW,2013-01-21 03:07:00,
2013-01-20 21:12:00,6.0,-4.2,29.97,WSW,248,0.0,0.0,62,0.00,,,0.00,WUHU216HW,2013-01-21 03:12:00,
2013-01-20 21:18:00,6.0,-4.2,29.98,West,270,0.0,0.0,62,0.00,,,0.00,WUHU216HW,2013-01-21 03:18:00,
2013-01-20 21:23:00,6.0,-4.2,29.97,West,270,0.0,0.0,62,0.00,,,0.00,WUHU216HW,2013-01-21 03:23:00,
2013-01-20 21:28:00,6.0,-4.2,29.98,West,270,0.0,0.0,62,0.00,,,0.00,WUHU216HW,2013-01-21 03:28:00,
2013-01-20 21:33:00,6.0,-3.9,29.98,West,270,0.0,0.0,63,0.00,,,0.00,WUHU216HW,2013-01-21 03:33:00,
2013-01-20 21:38:00,6.0,-3.9,29.97,West,270,0.0,0.0,63,0.00,,,0.00,WUHU216HW,2013-01-21 03:38:00,
2013-01-20 21:43:00,6.0,-3.9,29.97,West,270,0.0,0.0,63,0.00,,,0.00,WUHU216HW,2013-01-21 03:43:00,
2013-01-20 21:48:00,6.0,-3.9,29.97,West,270,0.0,0.0,63,0.00,,,0.00,WUHU216HW,2013-01-21 03:48:00,
2013-01-20 21:53:00,6.0,-3.9,29.97,WSW,248,0.0,0.0,63,0.00,,,0.00,WUHU216HW,2013-01-21 03:53:00,
2013-01-20 21:58:00,6.0,-3.6,29.97,WSW,248,0.0,0.0,64,0.00,,,0.00,WUHU216HW,2013-01-21 03:58:00,
2013-01-20 22:03:00,6.0,-3.6,29.96,WSW,248,0.0,0.0,64,0.00,,,0.00,WUHU216HW,2013-01-21 04:03:00,
2013-01-20 22:08:00,6.0,-3.6,29.96,West,270,0.0,0.0,64,0.00,,,0.00,WUHU216HW,2013-01-21 04:08:00,
2013-01-20 22:13:00,6.0,-3.6,29.96,WNW,293,0.0,0.0,64,0.00,,,0.00,WUHU216HW,2013-01-21 04:13:00,
2013-01-20 22:18:00,6.0,-3.6,29.96,NW,315,1.5,1.5,64,0.00,,,0.00,WUHU216HW,2013-01-21 04:18:00,
2013-01-20 22:23:00,6.0,-3.6,29.96,WSW,248,0.0,1.5,64,0.00,,,0.00,WUHU216HW,2013-01-21 04:23:00,
2013-01-20 22:28:00,6.0,-3.6,29.95,West,270,0.0,0.0,64,0.00,,,0.00,WUHU216HW,2013-01-21 04:28:00,
2013-01-20 22:33:00,6.0,-3.6,29.95,West,270,0.0,0.0,64,0.00,,,0.00,WUHU216HW,2013-01-21 04:33:00,
2013-01-20 22:38:00,6.0,-3.6,29.95,NW,315,0.0,0.0,64,0.00,,,0.00,WUHU216HW,2013-01-21 04:38:00,
2013-01-20 22:44:00,6.0,-3.6,29.95,SW,225,0.0,0.0,64,0.00,,,0.00,WUHU216HW,2013-01-21 04:44:00,
2013-01-20 22:49:00,5.9,-3.7,29.95,SW,225,0.0,0.0,64,0.00,,,0.00,WUHU216HW,2013-01-21 04:49:00,
2013-01-20 22:54:00,5.9,-3.7,29.95,West,270,0.0,0.0,64,0.00,,,0.00,WUHU216HW,2013-01-21 04:54:00,
2013-01-20 22:59:00,5.9,-3.7,29.95,WSW,248,0.0,0.0,64,0.00,,,0.00,WUHU216HW,2013-01-21 04:59:00,
2013-01-20 23:00:00,5.9,-3.7,29.95,WSW,248,0.0,0.0,64,0.00,,,0.00,WUHU216HW,2013-01-21 05:00:00,
2013-01-20 23:02:00,5.9,-3.4,29.95,WSW,248,0.0,0.0,65,0.00,,,0.00,WUHU216HW,2013-01-21 05:02:00,
2013-01-20 23:03:00,5.9,-3.4,29.95,WSW,248,0.0,0.0,65,0.00,,,0.00,WUHU216HW,2013-01-21 05:03:00,
2013-01-20 23:08:00,6.0,-3.2,29.95,WNW,293,0.0,0.0,65,0.00,,,0.00,WUHU216HW,2013-01-21 05:08:00,
2013-01-20 23:13:00,6.0,-3.2,29.95,WNW,293,0.0,0.0,65,0.00,,,0.00,WUHU216HW,2013-01-21 05:13:00,
2013-01-20 23:18:00,6.0,-3.2,29.95,West,270,0.0,0.0,65,0.00,,,0.00,WUHU216HW,2013-01-21 05:18:00,
2013-01-20 23:24:00,6.4,-2.9,29.95,WNW,293,0.0,0.0,65,0.00,,,0.00,WUHU216HW,2013-01-21 05:24:00,
2013-01-20 23:29:00,6.4,-2.9,29.95,WNW,293,0.0,0.0,65,0.00,,,0.00,WUHU216HW,2013-01-21 05:29:00,
2013-01-20 23:34:00,6.4,-2.9,29.94,WSW,248,0.0,0.0,65,0.00,,,0.00,WUHU216HW,2013-01-21 05:34:00,
2013-01-20 23:39:00,6.4,-2.9,29.94,WNW,293,0.0,0.0,65,0.00,,,0.00,WUHU216HW,2013-01-21 05:39:00,
2013-01-20 23:44:00,6.4,-2.9,29.94,WNW,293,0.0,0.0,65,0.00,,,0.00,WUHU216HW,2013-01-21 05:44:00,
2013-01-20 23:49:00,6.4,-2.9,29.93,West,270,0.0,3.1,65,0.00,,,0.00,WUHU216HW,2013-01-21 05:49:00,
2013-01-20 23:54:00,6.4,-2.9,29.93,West,270,0.0,3.1,65,0.00,,,0.00,WUHU216HW,2013-01-21 05:54:00,
2013-01-20 23:59:00,6.4,-2.9,29.93,WNW,293,0.0,1.7,65,0.00,,,0.00,WUHU216HW,2013-01-21 05:59:00,